This is the latest recevied weather packets stored in our database for station/object AE5HO. If no packets are shown the sender has not sent any weather packets the latest 10 day(s).
| Time | Temp. | Humidity | Pressure | Rain* | Wind** | Luminosity | Snow |
|---|---|---|---|---|---|---|---|
| 1777428860 | 23.89° C | 97% | 1010.8 hPa | 0 mm | - | 0 W/m² | - |
| 1777428556 | 23.89° C | 98% | 1010.9 hPa | 0 mm | - | 0 W/m² | - |
| 1777428252 | 23.89° C | 98% | 1010.6 hPa | 0 mm | - | 0 W/m² | - |
| 1777427947 | 23.89° C | 97% | 1010.3 hPa | 0 mm | - | 0 W/m² | - |
| 1777427644 | 23.89° C | 97% | 1010.4 hPa | 0 mm | - | 0 W/m² | - |
| 1777427340 | 24.44° C | 97% | 1010.4 hPa | 0 mm | - | 0 W/m² | - |
| 1777427037 | 24.44° C | 97% | 1010.4 hPa | 0 mm | - | 0 W/m² | - |
| 1777426735 | 24.44° C | 97% | 1010.3 hPa | 0 mm | - | 0 W/m² | - |
| 1777426432 | 24.44° C | 97% | 1010.2 hPa | 0 mm | - | 0 W/m² | - |
| 1777426128 | 24.44° C | 97% | 1009.7 hPa | 0 mm | - | 0 W/m² | - |
| 1777425828 | 24.44° C | 97% | 1009.4 hPa | 0 mm | - | 0 W/m² | - |
| 1777425523 | 24.44° C | 97% | 1009.2 hPa | 0 mm | - | 0 W/m² | - |
| 1777425218 | 24.44° C | 97% | 1009.4 hPa | 0 mm | - | 0 W/m² | - |
| 1777424916 | 24.44° C | 97% | 1009.2 hPa | 0 mm | - | 0 W/m² | - |
| 1777424612 | 24.44° C | 97% | 1009.4 hPa | 0 mm | - | 0 W/m² | - |
| 1777424307 | 25° C | 97% | 1009.3 hPa | 0 mm | - | 0 W/m² | - |
| 1777424003 | 25° C | 97% | 1009.2 hPa | 0 mm | - | 1 W/m² | - |
| 1777423700 | 25° C | 97% | 1009.2 hPa | 0 mm | - | 2 W/m² | - |
| 1777423396 | 25° C | 97% | 1009.1 hPa | 0 mm | - | 5 W/m² | - |
| 1777423090 | 25° C | 97% | 1008.9 hPa | 0 mm | - | 7 W/m² | - |
| 1777422786 | 25° C | 97% | 1009.1 hPa | 0 mm | - | 11 W/m² | - |
| 1777422481 | 25° C | 97% | 1009.2 hPa | 0 mm | - | 12 W/m² | - |
| 1777422177 | 25° C | 97% | 1009.5 hPa | 0 mm | - | 18 W/m² | - |
| 1777421877 | 25° C | 98% | 1009.1 hPa | 0 mm | - | 23 W/m² | - |
| 1777421577 | 25° C | 98% | 1009.2 hPa | 0 mm | - | 31 W/m² | - |
* Rain latest hour (hover to see other rain measurements)
** Current wind speed in m/s (hover to see current wind gust speed)